CFG080 EDDF-KLAX

Flight info

Callsign CFG080
Flight time N/A
Altitude 34000
Route MARUN2D MARUN Y152 ARPEG Z850 ABILU DCT ATPAQ DCT OMIMA DCT ATNAK DCT GUNPA/M080F340 DCT 65N010W 68N020W 6930N03000W/M082F360 70N040W 70N060W DCT ADSAM/N0480F360 DCT 69N070W 67N080W 6330N09000W/N0479F380 DCT YEK DCT 56N100W DCT DURUR DCT KATEN DCT GGW DCT BIL DCT KU84Q DCT TCH/N0470F400 DCT WINEN/N0466F390 Q73 EEVUN/N0469F400 Q73 HAKMN ANJLL4
Aircraft A339/H-SDE1E2E3GHIJ1J4J7LM1OP2RVWXYZ/LB1D1

Departure

Time N/A
Airport Frankfurt Main Airport (EDDF)

Arrival

Time 2026-04-22 10:10
Airport Los Angeles International Airport (KLAX)
Time Latitude Longitude Altitude Speed Heading
2026-04-22 08:42 40.64062 -112.09671 34469 ft 401 kts 203°
2026-04-22 08:43 40.61472 -112.11073 34859 ft 399 kts 203°
2026-04-22 08:43 40.58924 -112.12450 35209 ft 398 kts 203°
2026-04-22 08:43 40.56359 -112.13837 35520 ft 397 kts 203°
2026-04-22 08:43 40.53818 -112.15204 35808 ft 397 kts 203°
2026-04-22 08:44 40.51269 -112.16579 36098 ft 398 kts 203°
2026-04-22 08:44 40.48709 -112.17960 36424 ft 398 kts 203°
2026-04-22 08:44 40.46120 -112.19351 36774 ft 397 kts 202°
2026-04-22 08:44 40.43566 -112.20726 37142 ft 396 kts 203°
2026-04-22 08:45 40.41021 -112.22093 37502 ft 396 kts 203°
2026-04-22 08:45 40.38475 -112.23456 37835 ft 396 kts 203°
2026-04-22 08:45 40.35954 -112.24810 38134 ft 395 kts 202°
2026-04-22 08:45 40.33398 -112.26179 38396 ft 395 kts 203°
2026-04-22 08:46 40.30884 -112.27527 38633 ft 395 kts 203°
2026-04-22 08:46 40.28327 -112.28896 38933 ft 394 kts 203°
2026-04-22 08:46 40.25818 -112.30235 39177 ft 394 kts 203°
2026-04-22 08:46 40.23266 -112.31599 39367 ft 394 kts 203°
2026-04-22 08:47 40.20752 -112.32941 39547 ft 394 kts 203°
2026-04-22 08:47 40.18202 -112.34299 39655 ft 396 kts 203°
2026-04-22 08:47 40.15636 -112.35668 39759 ft 398 kts 203°
2026-04-22 08:48 40.10514 -112.38394 39912 ft 401 kts 203°
2026-04-22 08:48 40.05355 -112.41132 39920 ft 401 kts 204°
2026-04-22 08:49 40.00154 -112.43893 39930 ft 401 kts 204°
2026-04-22 08:49 39.94997 -112.46623 39929 ft 402 kts 204°
2026-04-22 08:50 39.89807 -112.49369 39925 ft 402 kts 203°
2026-04-22 08:50 39.84620 -112.52106 39894 ft 403 kts 204°
2026-04-22 08:51 39.79440 -112.54836 39927 ft 404 kts 204°
2026-04-22 08:51 39.74214 -112.57589 39893 ft 405 kts 204°
2026-04-22 08:52 39.68998 -112.60328 39920 ft 406 kts 204°
2026-04-22 08:52 39.63755 -112.63077 39944 ft 407 kts 204°
2026-04-22 08:53 39.58504 -112.65826 39934 ft 408 kts 203°
2026-04-22 08:53 39.53247 -112.68572 39954 ft 408 kts 203°
2026-04-22 08:54 39.47973 -112.71326 39929 ft 409 kts 204°
2026-04-22 08:54 39.42703 -112.74072 39935 ft 410 kts 203°
2026-04-22 08:55 39.37414 -112.76825 39932 ft 410 kts 203°
2026-04-22 08:55 39.32106 -112.79582 39938 ft 411 kts 204°
2026-04-22 08:56 39.26805 -112.82328 39934 ft 412 kts 203°
2026-04-22 08:56 39.21488 -112.85079 39951 ft 413 kts 203°
2026-04-22 08:57 39.16161 -112.87833 39936 ft 412 kts 204°
2026-04-22 08:57 39.10854 -112.90569 39940 ft 414 kts 204°
2026-04-22 08:58 39.05503 -112.93325 39939 ft 415 kts 204°
2026-04-22 08:58 39.00119 -112.96094 39960 ft 417 kts 204°
2026-04-22 08:59 38.94765 -112.98843 39953 ft 417 kts 204°
2026-04-22 08:59 38.89362 -113.01614 39950 ft 417 kts 204°
2026-04-22 09:00 38.83954 -113.04382 39950 ft 419 kts 204°
2026-04-22 09:00 38.78549 -113.07140 39953 ft 420 kts 204°
2026-04-22 09:01 38.73138 -113.09901 39937 ft 420 kts 204°
2026-04-22 09:01 38.67674 -113.12684 39950 ft 421 kts 204°
2026-04-22 09:02 38.62262 -113.15434 39960 ft 422 kts 204°
2026-04-22 09:02 38.56783 -113.18212 39972 ft 422 kts 204°
2026-04-22 09:03 38.51346 -113.20963 39979 ft 423 kts 205°
2026-04-22 09:03 38.45862 -113.23741 39973 ft 423 kts 205°
2026-04-22 09:04 38.40397 -113.26500 39977 ft 423 kts 205°
2026-04-22 09:04 38.34934 -113.29251 39984 ft 424 kts 205°
2026-04-22 09:05 38.29466 -113.32001 39990 ft 424 kts 205°
2026-04-22 09:05 38.23987 -113.34753 39995 ft 425 kts 205°
2026-04-22 09:06 38.18460 -113.37522 39997 ft 426 kts 205°
2026-04-22 09:06 38.12964 -113.40272 39999 ft 426 kts 205°
2026-04-22 09:07 38.07429 -113.43031 40010 ft 426 kts 205°
2026-04-22 09:07 38.01908 -113.45778 40013 ft 428 kts 205°
2026-04-22 09:08 37.96379 -113.48471 40009 ft 429 kts 203°
2026-04-22 09:08 37.90609 -113.50635 40013 ft 431 kts 198°
2026-04-22 09:09 37.84750 -113.52142 40018 ft 432 kts 196°
2026-04-22 09:09 37.78838 -113.53581 40019 ft 432 kts 196°
2026-04-22 09:10 37.72957 -113.55003 40019 ft 432 kts 196°
2026-04-22 09:10 37.67035 -113.56430 40018 ft 433 kts 196°
2026-04-22 09:11 37.61116 -113.57851 40016 ft 432 kts 196°
2026-04-22 09:11 37.55244 -113.59260 40012 ft 431 kts 197°
2026-04-22 09:12 37.49332 -113.60674 40014 ft 431 kts 196°
2026-04-22 09:12 37.43450 -113.62077 40015 ft 430 kts 197°
2026-04-22 09:13 37.37620 -113.63467 40015 ft 428 kts 197°
2026-04-22 09:13 37.31757 -113.64859 40018 ft 428 kts 197°
2026-04-22 09:14 37.25874 -113.66254 40023 ft 428 kts 196°
2026-04-22 09:14 37.20044 -113.67632 40017 ft 428 kts 197°
2026-04-22 09:15 37.14185 -113.69015 40017 ft 428 kts 197°
2026-04-22 09:15 37.08345 -113.70444 40013 ft 426 kts 199°
2026-04-22 09:16 37.02693 -113.72414 40009 ft 423 kts 204°
2026-04-22 09:16 36.97210 -113.74975 40004 ft 420 kts 206°
2026-04-22 09:17 36.91768 -113.77598 40011 ft 420 kts 206°
2026-04-22 09:17 36.86328 -113.80217 40007 ft 419 kts 207°
2026-04-22 09:18 36.80907 -113.82828 40008 ft 419 kts 206°
2026-04-22 09:18 36.75441 -113.85456 40008 ft 419 kts 207°
2026-04-22 09:19 36.70036 -113.88055 40002 ft 419 kts 207°
2026-04-22 09:19 36.64625 -113.90747 39997 ft 417 kts 210°
2026-04-22 09:20 36.59329 -113.93690 40000 ft 417 kts 210°
2026-04-22 09:20 36.54033 -113.96597 40001 ft 418 kts 210°
2026-04-22 09:21 36.48714 -113.99515 40005 ft 417 kts 210°
2026-04-22 09:21 36.43432 -114.02460 40008 ft 416 kts 212°
2026-04-22 09:22 36.38348 -114.05874 40005 ft 412 kts 217°
2026-04-22 09:22 36.33489 -114.09605 40010 ft 411 kts 217°
2026-04-22 09:23 36.28646 -114.13297 40012 ft 409 kts 217°
2026-04-22 09:23 36.23812 -114.16984 40012 ft 409 kts 218°
2026-04-22 09:24 36.18945 -114.20699 40030 ft 410 kts 218°
2026-04-22 09:24 36.14162 -114.24432 40027 ft 406 kts 220°
2026-04-22 09:25 36.09679 -114.28574 40019 ft 402 kts 225°
2026-04-22 09:25 36.05535 -114.33171 40025 ft 399 kts 230°
2026-04-22 09:26 36.01757 -114.38161 40028 ft 396 kts 232°
2026-04-22 09:26 35.98092 -114.43205 40033 ft 396 kts 233°
2026-04-22 09:27 35.94446 -114.48229 40025 ft 394 kts 233°
2026-04-22 09:27 35.90791 -114.53266 40033 ft 394 kts 233°
2026-04-22 09:28 35.87156 -114.58270 40019 ft 392 kts 233°
2026-04-22 09:28 35.83508 -114.63281 40042 ft 392 kts 234°
2026-04-22 09:29 35.79888 -114.68256 40003 ft 392 kts 233°
2026-04-22 09:29 35.76239 -114.73262 40005 ft 391 kts 233°
2026-04-22 09:30 35.72612 -114.78217 39996 ft 392 kts 233°
2026-04-22 09:30 35.68969 -114.83199 39991 ft 391 kts 233°
2026-04-22 09:31 35.65364 -114.88132 40002 ft 390 kts 233°
2026-04-22 09:31 35.61734 -114.93110 40015 ft 391 kts 234°
2026-04-22 09:32 35.58133 -114.98030 39998 ft 389 kts 234°
2026-04-22 09:32 35.54508 -115.02973 39994 ft 387 kts 234°
2026-04-22 09:33 35.50912 -115.07866 39978 ft 388 kts 234°
2026-04-22 09:33 35.47231 -115.12736 40004 ft 389 kts 233°
2026-04-22 09:34 35.43534 -115.17562 40011 ft 390 kts 233°
2026-04-22 09:34 35.39829 -115.22403 40035 ft 390 kts 233°
2026-04-22 09:35 35.34280 -115.29623 40019 ft 390 kts 233°
2026-04-22 09:35 35.30547 -115.34475 40051 ft 390 kts 233°
2026-04-22 09:36 35.26836 -115.39285 40051 ft 390 kts 233°
2026-04-22 09:36 35.23122 -115.44093 40052 ft 390 kts 234°
2026-04-22 09:37 35.19405 -115.48901 40063 ft 390 kts 233°
2026-04-22 09:37 35.15660 -115.53725 40064 ft 390 kts 233°
2026-04-22 09:38 35.11939 -115.58527 40076 ft 390 kts 233°
2026-04-22 09:38 35.08220 -115.63309 39690 ft 388 kts 234°
2026-04-22 09:39 35.06353 -115.65696 39288 ft 388 kts 233°
2026-04-22 09:39 35.04494 -115.68074 38836 ft 388 kts 234°
2026-04-22 09:39 35.02636 -115.70449 38395 ft 388 kts 234°
2026-04-22 09:39 35.00786 -115.72812 37946 ft 388 kts 234°
2026-04-22 09:40 34.98940 -115.75167 37505 ft 387 kts 234°
2026-04-22 09:40 34.97069 -115.77550 37077 ft 387 kts 234°
2026-04-22 09:40 34.95217 -115.79905 36663 ft 386 kts 234°
2026-04-22 09:40 34.93372 -115.82254 36252 ft 385 kts 235°
2026-04-22 09:41 34.91516 -115.84611 35785 ft 385 kts 234°
2026-04-22 09:41 34.89665 -115.86965 35321 ft 385 kts 235°
2026-04-22 09:41 34.87810 -115.89312 34851 ft 385 kts 235°
2026-04-22 09:41 34.85961 -115.91657 34373 ft 384 kts 235°
2026-04-22 09:42 34.84111 -115.93997 33882 ft 385 kts 235°
2026-04-22 09:42 34.82261 -115.96337 33398 ft 384 kts 235°
2026-04-22 09:42 34.80434 -115.98651 32907 ft 385 kts 235°
2026-04-22 09:42 34.78583 -116.00995 32405 ft 385 kts 235°
2026-04-22 09:43 34.76700 -116.03388 31618 ft 390 kts 235°
2026-04-22 09:43 34.74851 -116.05765 31027 ft 390 kts 234°
2026-04-22 09:43 34.72970 -116.08170 30478 ft 389 kts 234°
2026-04-22 09:43 34.71124 -116.10527 29937 ft 389 kts 234°
2026-04-22 09:44 34.69257 -116.12905 29391 ft 388 kts 233°
2026-04-22 09:44 34.67408 -116.15256 28858 ft 389 kts 233°
2026-04-22 09:44 34.65499 -116.17688 28499 ft 396 kts 233°
2026-04-22 09:44 34.63611 -116.20085 28108 ft 396 kts 233°
2026-04-22 09:45 34.61703 -116.22502 27648 ft 395 kts 233°
2026-04-22 09:45 34.59830 -116.24873 27259 ft 391 kts 233°
2026-04-22 09:45 34.57953 -116.27248 26898 ft 389 kts 232°
2026-04-22 09:45 34.56085 -116.29610 26545 ft 387 kts 232°
2026-04-22 09:46 34.54223 -116.31960 26173 ft 385 kts 232°
2026-04-22 09:46 34.52371 -116.34298 25802 ft 383 kts 232°
2026-04-22 09:46 34.50530 -116.36618 25449 ft 380 kts 232°
2026-04-22 09:46 34.48695 -116.38931 25100 ft 379 kts 232°
2026-04-22 09:47 34.46890 -116.41206 24766 ft 377 kts 232°
2026-04-22 09:47 34.45069 -116.43500 24436 ft 376 kts 232°
2026-04-22 09:47 34.43337 -116.45807 24227 ft 364 kts 236°
2026-04-22 09:47 34.41849 -116.48201 24161 ft 348 kts 240°
2026-04-22 09:48 34.40587 -116.50658 24084 ft 341 kts 245°
2026-04-22 09:48 34.39484 -116.53230 24074 ft 346 kts 246°
2026-04-22 09:48 34.38401 -116.55832 24073 ft 347 kts 247°
2026-04-22 09:48 34.37317 -116.58442 24069 ft 347 kts 246°
2026-04-22 09:49 34.36237 -116.61048 24078 ft 347 kts 247°
2026-04-22 09:49 34.35171 -116.63626 24080 ft 346 kts 246°
2026-04-22 09:49 34.34097 -116.66226 24083 ft 347 kts 246°
2026-04-22 09:49 34.33010 -116.68874 24019 ft 348 kts 247°
2026-04-22 09:50 34.31962 -116.71491 23839 ft 345 kts 247°
2026-04-22 09:50 34.30922 -116.74091 23676 ft 345 kts 247°
2026-04-22 09:50 34.29874 -116.76704 23519 ft 342 kts 247°
2026-04-22 09:50 34.28856 -116.79259 23253 ft 337 kts 247°
2026-04-22 09:51 34.27845 -116.81789 22801 ft 336 kts 247°
2026-04-22 09:51 34.26829 -116.84318 22315 ft 336 kts 247°
2026-04-22 09:51 34.25807 -116.86841 21884 ft 335 kts 247°
2026-04-22 09:51 34.24777 -116.89382 21442 ft 334 kts 247°
2026-04-22 09:52 34.23763 -116.91873 21017 ft 332 kts 246°
2026-04-22 09:52 34.22752 -116.94363 20595 ft 331 kts 246°
2026-04-22 09:52 34.21754 -116.96838 20199 ft 328 kts 248°
2026-04-22 09:52 34.20897 -116.99371 19766 ft 326 kts 252°
2026-04-22 09:53 34.20182 -117.01952 19359 ft 324 kts 253°
2026-04-22 09:53 34.19470 -117.04559 18947 ft 323 kts 253°
2026-04-22 09:53 34.18774 -117.07119 18532 ft 321 kts 253°
2026-04-22 09:53 34.18082 -117.09669 18112 ft 320 kts 253°
2026-04-22 09:54 34.17392 -117.12211 17705 ft 319 kts 253°
2026-04-22 09:54 34.16701 -117.14751 17301 ft 317 kts 253°
2026-04-22 09:54 34.16014 -117.17275 16883 ft 316 kts 253°
2026-04-22 09:54 34.15331 -117.19772 16455 ft 315 kts 253°
2026-04-22 09:55 34.14640 -117.22285 16027 ft 314 kts 253°
2026-04-22 09:55 34.13956 -117.24766 15633 ft 312 kts 253°
2026-04-22 09:55 34.13276 -117.27228 15333 ft 308 kts 253°
2026-04-22 09:55 34.12597 -117.29683 15067 ft 309 kts 253°
2026-04-22 09:56 34.11916 -117.32146 14820 ft 309 kts 253°
2026-04-22 09:56 34.11239 -117.34596 14536 ft 308 kts 253°
2026-04-22 09:56 34.10561 -117.37044 14213 ft 307 kts 253°
2026-04-22 09:56 34.09934 -117.39477 13939 ft 302 kts 255°
2026-04-22 09:57 34.09338 -117.41888 13642 ft 298 kts 255°
2026-04-22 09:57 34.08748 -117.44265 13371 ft 293 kts 255°
2026-04-22 09:57 34.08165 -117.46604 13065 ft 291 kts 255°
2026-04-22 09:57 34.07585 -117.48923 12714 ft 290 kts 255°
2026-04-22 09:58 34.06998 -117.51256 12368 ft 289 kts 255°
2026-04-22 09:58 34.06416 -117.53548 12028 ft 288 kts 255°
2026-04-22 09:58 34.05832 -117.55830 11707 ft 286 kts 255°
2026-04-22 09:58 34.05241 -117.58136 11359 ft 285 kts 255°
2026-04-22 09:59 34.04662 -117.60397 11060 ft 282 kts 255°
2026-04-22 09:59 34.04084 -117.62648 10840 ft 283 kts 255°
2026-04-22 09:59 34.03503 -117.64916 10636 ft 283 kts 255°
2026-04-22 09:59 34.02927 -117.67162 10449 ft 282 kts 254°
2026-04-22 10:00 34.02382 -117.69432 10249 ft 281 kts 258°
2026-04-22 10:00 34.02056 -117.71749 9901 ft 281 kts 264°
2026-04-22 10:00 34.01821 -117.74088 9557 ft 280 kts 264°
2026-04-22 10:00 34.01600 -117.76388 9242 ft 279 kts 264°
2026-04-22 10:01 34.01374 -117.78749 8921 ft 280 kts 264°
2026-04-22 10:01 34.01151 -117.81049 8600 ft 279 kts 264°
2026-04-22 10:01 34.00924 -117.83383 8318 ft 276 kts 264°
2026-04-22 10:01 34.00700 -117.85682 7990 ft 276 kts 264°
2026-04-22 10:02 34.00476 -117.87961 7641 ft 277 kts 264°
2026-04-22 10:02 34.00248 -117.90282 7328 ft 276 kts 264°
2026-04-22 10:02 34.00024 -117.92567 7031 ft 274 kts 264°
2026-04-22 10:02 33.99798 -117.94869 6703 ft 274 kts 264°
2026-04-22 10:03 33.99577 -117.97131 6374 ft 274 kts 264°
2026-04-22 10:03 33.99350 -117.99438 6033 ft 275 kts 264°
2026-04-22 10:03 33.99126 -118.01691 5608 ft 270 kts 264°
2026-04-22 10:03 33.98905 -118.03896 5269 ft 257 kts 264°
2026-04-22 10:04 33.98694 -118.05996 4932 ft 246 kts 264°
2026-04-22 10:04 33.98495 -118.07975 4609 ft 237 kts 264°
2026-04-22 10:04 33.98299 -118.09933 4282 ft 230 kts 264°
2026-04-22 10:04 33.98111 -118.11809 3971 ft 223 kts 264°
2026-04-22 10:05 33.97932 -118.13611 3897 ft 213 kts 265°
2026-04-22 10:05 33.97780 -118.15376 3710 ft 212 kts 265°
2026-04-22 10:05 33.97621 -118.17136 3518 ft 210 kts 265°
2026-04-22 10:05 33.97450 -118.18864 3294 ft 202 kts 264°
2026-04-22 10:06 33.97278 -118.20501 3149 ft 195 kts 264°
2026-04-22 10:06 33.97105 -118.22113 2981 ft 190 kts 264°
2026-04-22 10:06 33.96939 -118.23658 2814 ft 185 kts 264°
2026-04-22 10:06 33.96775 -118.25185 2567 ft 179 kts 264°
2026-04-22 10:07 33.96622 -118.26630 2332 ft 173 kts 264°
2026-04-22 10:07 33.96473 -118.28044 2112 ft 167 kts 264°
2026-04-22 10:07 33.96330 -118.29398 1892 ft 160 kts 264°
2026-04-22 10:07 33.96194 -118.30714 1681 ft 154 kts 265°
2026-04-22 10:08 33.96063 -118.31962 1482 ft 147 kts 264°
2026-04-22 10:08 33.95938 -118.33156 1291 ft 141 kts 265°
2026-04-22 10:08 33.95819 -118.34306 1112 ft 138 kts 264°
2026-04-22 10:08 33.95695 -118.35455 941 ft 138 kts 264°
2026-04-22 10:09 33.95572 -118.36601 737 ft 138 kts 265°
2026-04-22 10:09 33.95465 -118.37743 559 ft 137 kts 265°
2026-04-22 10:09 33.95347 -118.38897 374 ft 137 kts 263°
2026-04-22 10:09 33.95228 -118.40028 189 ft 136 kts 264°
2026-04-22 10:10 33.95113 -118.41112 134 ft 122 kts 263°
2026-04-22 10:10 33.95035 -118.41924 130 ft 70 kts 263°
2026-04-22 10:10 33.94989 -118.42361 127 ft 40 kts 261°
2026-04-22 10:10 33.94915 -118.42587 124 ft 23 kts 236°
2026-04-22 10:11 33.94825 -118.42712 122 ft 17 kts 224°
2026-04-22 10:11 33.94716 -118.42776 120 ft 18 kts 190°
2026-04-22 10:11 33.94655 -118.42779 120 ft 4 kts 169°
2026-04-22 10:11 33.94640 -118.42763 120 ft 4 kts 117°
2026-04-22 10:12 33.94637 -118.42701 120 ft 8 kts 84°
2026-04-22 10:12 33.94644 -118.42624 121 ft 9 kts 83°
2026-04-22 10:12 33.94653 -118.42544 123 ft 9 kts 83°
2026-04-22 10:12 33.94662 -118.42460 124 ft 10 kts 83°
2026-04-22 10:13 33.94671 -118.42369 124 ft 11 kts 84°
2026-04-22 10:13 33.94680 -118.42271 126 ft 11 kts 84°
2026-04-22 10:13 33.94690 -118.42172 127 ft 12 kts 83°
2026-04-22 10:13 33.94701 -118.42065 128 ft 13 kts 82°
2026-04-22 10:14 33.94714 -118.41946 129 ft 15 kts 83°
2026-04-22 10:14 33.94728 -118.41805 130 ft 17 kts 83°
2026-04-22 10:14 33.94743 -118.41660 131 ft 17 kts 83°
2026-04-22 10:14 33.94759 -118.41512 132 ft 17 kts 82°
2026-04-22 10:15 33.94745 -118.41402 132 ft 11 kts 149°
2026-04-22 10:15 33.94658 -118.41380 132 ft 13 kts 172°
2026-04-22 10:15 33.94558 -118.41366 132 ft 14 kts 174°
2026-04-22 10:15 33.94453 -118.41351 132 ft 15 kts 174°
2026-04-22 10:16 33.94389 -118.41354 132 ft 6 kts 231°
2026-04-22 10:16 33.94378 -118.41399 132 ft 5 kts 263°
2026-04-22 10:16 33.94374 -118.41437 131 ft 4 kts 263°
2026-04-22 10:16 33.94373 -118.41448 131 ft 0 kts 263°